This demonstration page uses our WeatherBlox Daily Observations layout. Learn more.

Left ArrowRight Arrow

Hourly Observations for April 20, 2019

Temp ( °F °C ) Dew Point ( °F °C ) Humidity (%) Winds ( mph kmh ) Pressure ( in mb ) Visibility ( mi km ) Precip ( " mm )
12:15 am 00:15 Cloudy 64 18 64 18 100 100 SSE 7 11 29.57 1002 10 16 0.00 0.00
12:35 am 00:35 Cloudy 64 18 64 18 100 100 SSE 12 19 29.58 1002 10 16 0.00 0.00
12:55 am 00:55 Cloudy 64 18 64 18 100 100 S 10 17 29.58 1002 10 16 0.00 0.00
1:15 am 01:15 Cloudy 64 18 63 17 94 94 SSE 14 22 29.58 1002 10 16 0.00 0.00
1:35 am 01:35 Cloudy 64 18 63 17 94 94 S 10 17 29.58 1002 4 6 0.00 0.00
1:55 am 01:55 Cloudy 63 17 63 17 100 100 SSE 12 19 29.59 1002 7 11 0.00 0.00
2:15 am 02:15 Cloudy 63 17 63 17 100 100 SSE 9 15 29.59 1002 10 16 0.00 0.00
2:35 am 02:35 Cloudy 63 17 63 17 100 100 SSE 13 20 29.59 1002 10 16 0.00 0.00
2:55 am 02:55 Cloudy 63 17 63 17 100 100 SSE 13 20 29.59 1002 10 16 0.00 0.00
3:15 am 03:15 Cloudy 63 17 63 17 100 100 S 9 15 29.58 1002 10 16 0.00 0.00
3:35 am 03:35 Cloudy 63 17 63 17 100 100 SE 9 15 29.57 1001 10 16 0.00 0.00
3:55 am 03:55 Cloudy 63 17 63 17 100 100 SSE 8 13 29.57 1001 10 16 0.00 0.00
4:15 am 04:15 Cloudy 63 17 63 17 100 100 SSE 8 13 29.57 1001 10 16 0.00 0.00
4:35 am 04:35 Cloudy 63 17 63 17 100 100 SSE 7 11 29.56 1001 10 16 0.00 0.00
4:55 am 04:55 Cloudy 63 17 63 17 100 100 SSE 9 15 29.56 1001 10 16 0.00 0.00
5:15 am 05:15 Cloudy 63 17 63 17 100 100 SE 9 15 29.56 1001 10 16 0.00 0.00
5:35 am 05:35 Cloudy 63 17 63 17 100 100 SE 8 13 29.55 1001 10 16 0.00 0.00
5:55 am 05:55 Cloudy 63 17 63 17 100 100 SSE 9 15 29.56 1001 10 16 0.00 0.00
6:15 am 06:15 Cloudy 63 17 63 17 100 100 SE 8 13 29.56 1001 10 16 0.00 0.00
6:35 am 06:35 Cloudy 63 17 63 17 100 100 SE 9 15 29.56 1001 10 16 0.00 0.00
6:55 am 06:55 Mostly Cloudy 63 17 63 17 100 100 SSE 9 15 29.56 1001 10 16 0.00 0.00
7:15 am 07:15 Cloudy 63 17 63 17 100 100 SSE 9 15 29.56 1001 10 16 0.00 0.00
7:35 am 07:35 Cloudy 63 17 63 17 100 100 SE 10 17 29.57 1001 10 16 0.00 0.00
7:55 am 07:55 Cloudy 63 17 63 17 100 100 SSE 12 19 29.57 1001 10 16 0.00 0.00
8:15 am 08:15 Cloudy 64 18 63 17 94 94 SSE 10 17 29.58 1002 10 16 0.00 0.00
8:35 am 08:35 Cloudy 64 18 63 17 94 94 S 16 26 29.58 1002 10 16 0.00 0.00
8:55 am 08:55 Cloudy 64 18 61 16 88 88 S 12 19 29.58 1002 10 16 0.00 0.00
9:10 am 09:10 Cloudy 66 19 61 16 83 83 S 12 19 29.57 1001 10 16 0.00 0.00
9:35 am 09:35 Mostly Cloudy 66 19 59 15 78 78 S 15 24 29.58 1002 10 16 0.00 0.00
9:55 am 09:55 Partly Cloudy 68 20 54 12 60 60 S 16 26 29.59 1002 10 16 0.00 0.00
10:15 am 10:15 Sunny 68 20 52 11 56 56 S 18 30 29.60 1002 10 16 0.00 0.00
10:35 am 10:35 Sunny 68 20 50 10 53 53 S 17 28 29.61 1003 10 16 0.00 0.00
10:55 am 10:55 Sunny 70 21 52 11 53 53 S 20 31 29.62 1003 10 16 0.00 0.00
11:15 am 11:15 Partly Cloudy 70 21 54 12 57 57 S 15 24 29.62 1003 10 16 0.00 0.00
11:35 am 11:35 Partly Cloudy 70 21 54 12 57 57 SSW 13 20 29.63 1003 10 16 0.00 0.00
11:55 am 11:55 Sunny 70 21 52 11 53 53 SSW 16 26 29.63 1003 10 16 0.00 0.00
12:15 pm 12:15 Sunny 70 21 50 10 50 50 S 22 35 29.63 1003 10 16 0.00 0.00
12:35 pm 12:35 Sunny 72 22 50 10 47 47 S 21 33 29.63 1003 10 16 0.00 0.00
12:55 pm 12:55 Sunny 70 21 50 10 50 50 S 16 26 29.63 1003 10 16 0.00 0.00
1:15 pm 13:15 Sunny 72 22 50 10 47 47 S 20 31 29.63 1003 10 16 0.00 0.00
1:35 pm 13:35 Sunny 72 22 50 10 47 47 S 18 30 29.64 1004 10 16 0.00 0.00
1:55 pm 13:55 Sunny 72 22 50 10 47 47 SSW 18 30 29.63 1003 10 16 0.00 0.00
2:15 pm 14:15 Sunny 72 22 50 10 47 47 SSW 22 35 29.64 1004 10 16 0.00 0.00
2:35 pm 14:35 Sunny 72 22 46 8 41 41 SSW 15 24 29.63 1003 10 16 0.00 0.00
2:55 pm 14:55 Partly Cloudy 72 22 46 8 41 41 SW 18 30 29.63 1003 10 16 0.00 0.00
3:15 pm 15:15 Partly Cloudy 73 23 48 9 41 41 S 16 26 29.62 1003 10 16 0.00 0.00
3:35 pm 15:35 Mostly Cloudy 73 23 46 8 38 38 S 15 24 29.62 1003 10 16 0.00 0.00
3:55 pm 15:55 Mostly Cloudy 72 22 46 8 41 41 S 17 28 29.63 1003 10 16 0.00 0.00
4:15 pm 16:15 Partly Cloudy 70 21 46 8 43 43 S 15 24 29.63 1003 10 16 0.00 0.00
4:35 pm 16:35 Mostly Cloudy 72 22 46 8 41 41 SSW 18 30 29.65 1004 10 16 0.00 0.00
4:55 pm 16:55 Cloudy 72 22 45 7 38 38 SSW 18 30 29.66 1004 10 16 0.00 0.00
5:15 pm 17:15 Partly Cloudy 70 21 45 7 40 40 SSW 15 24 29.67 1005 10 16 0.00 0.00
5:35 pm 17:35 Mostly Cloudy 70 21 45 7 40 40 S 17 28 29.68 1005 10 16 0.00 0.00
5:55 pm 17:55 Mostly Cloudy 68 20 45 7 43 43 SSW 13 20 29.68 1005 10 16 0.00 0.00
6:15 pm 18:15 Mostly Cloudy 70 21 45 7 40 40 S 15 24 29.69 1005 10 16 0.00 0.00
6:35 pm 18:35 Mostly Cloudy 68 20 45 7 43 43 S 18 30 29.69 1005 10 16 0.00 0.00
6:55 pm 18:55 Partly Cloudy 68 20 45 7 43 43 S 17 28 29.69 1005 10 16 0.00 0.00
7:15 pm 19:15 Mostly Cloudy 68 20 45 7 43 43 S 17 28 29.70 1006 10 16 0.00 0.00
7:35 pm 19:35 Cloudy 64 18 45 7 49 49 SW 14 22 29.73 1007 10 16 0.00 0.00
7:55 pm 19:55 Cloudy 64 18 45 7 49 49 SW 21 33 29.75 1008 10 16 0.00 0.00
8:15 pm 20:15 Cloudy 63 17 43 6 49 49 SW 10 17 29.77 1008 10 16 0.00 0.00
8:35 pm 20:35 Cloudy 63 17 45 7 52 52 SW 9 15 29.77 1008 10 16 0.00 0.00
8:55 pm 20:55 Partly Cloudy 61 16 43 6 52 52 SW 9 15 29.78 1008 10 16 0.00 0.00
9:15 pm 21:15 Clear 61 16 43 6 52 52 SSW 9 15 29.79 1009 10 16 0.00 0.00
9:35 pm 21:35 Clear 59 15 43 6 55 55 SSW 7 11 29.80 1009 10 16 0.00 0.00
9:55 pm 21:55 Partly Cloudy 59 15 43 6 55 55 SSW 9 15 29.80 1009 10 16 0.00 0.00
10:15 pm 22:15 Cloudy 59 15 43 6 55 55 SSW 7 11 29.81 1009 10 16 0.00 0.00
10:35 pm 22:35 Cloudy 59 15 43 6 55 55 S 7 11 29.81 1009 10 16 0.00 0.00
10:55 pm 22:55 Cloudy 59 15 43 6 55 55 SSW 8 13 29.81 1009 10 16 0.00 0.00
11:10 pm 23:10 Cloudy 59 15 43 6 55 55 SSW 6 9 29.81 1009 10 16 0.00 0.00
11:35 pm 23:35 Cloudy 59 15 43 6 55 55 SSW 7 11 29.83 1010 10 16 0.00 0.00
11:55 pm 23:55 Cloudy 59 15 43 6 55 55 SSW 6 9 29.83 1010 10 16 0.00 0.00

Powered by AerisWeather